TimePDT,TemperatureF,Dew PointF,Humidity,Sea Level PressureIn,VisibilityMPH,Wind Direction,Wind SpeedMPH,Gust SpeedMPH,PrecipitationIn,Events,Conditions,WindDirDegrees,DateUTC
12:53 AM,51.1,44.1,77,30.15,10.0,SSW,4.6,-,N/A,,Clear,210,2012-10-13 07:53:00
1:53 AM,51.1,44.1,77,30.14,10.0,SSW,6.9,-,N/A,,Clear,210,2012-10-13 08:53:00
2:53 AM,50.0,44.1,80,30.14,10.0,West,3.5,-,N/A,,Clear,260,2012-10-13 09:53:00
3:53 AM,46.9,41.0,80,30.14,10.0,Calm,Calm,-,N/A,,Clear,0,2012-10-13 10:53:00
4:53 AM,48.0,42.1,80,30.16,10.0,SSW,3.5,-,N/A,,Clear,210,2012-10-13 11:53:00
5:53 AM,46.0,41.0,83,30.18,10.0,SSW,5.8,-,N/A,,Clear,210,2012-10-13 12:53:00
6:53 AM,45.0,39.9,82,30.19,10.0,SW,3.5,-,N/A,,Clear,230,2012-10-13 13:53:00
7:53 AM,48.9,42.1,77,30.22,10.0,Calm,Calm,-,N/A,,Clear,0,2012-10-13 14:53:00
8:53 AM,55.0,44.1,67,30.23,10.0,Calm,Calm,-,N/A,,Clear,0,2012-10-13 15:53:00
9:53 AM,60.1,44.1,55,30.22,10.0,NW,4.6,-,N/A,,Clear,320,2012-10-13 16:53:00
10:53 AM,64.0,44.1,48,30.22,10.0,Calm,Calm,-,N/A,,Clear,0,2012-10-13 17:53:00
11:53 AM,66.9,43.0,42,30.21,10.0,NW,4.6,-,N/A,,Clear,320,2012-10-13 18:53:00
12:53 PM,69.1,43.0,39,30.18,10.0,Calm,Calm,-,N/A,,Clear,0,2012-10-13 19:53:00
1:53 PM,70.0,43.0,38,30.14,10.0,Calm,Calm,-,N/A,,Clear,0,2012-10-13 20:53:00
2:53 PM,75.0,41.0,29,30.12,10.0,Variable,3.5,-,N/A,,Clear,0,2012-10-13 21:53:00
3:53 PM,77.0,41.0,28,30.10,10.0,Calm,Calm,-,N/A,,Clear,0,2012-10-13 22:53:00
5:53 PM,77.0,39.9,26,30.09,10.0,NNE,4.6,-,N/A,,Clear,20,2012-10-14 00:53:00
6:53 PM,71.6,39.2,31,30.14,10.0,North,5.8,-,N/A,,Clear,10,2012-10-14 01:53:00
7:53 PM,66.9,39.9,37,30.13,10.0,Calm,Calm,-,N/A,,Clear,0,2012-10-14 02:53:00
8:53 PM,62.6,39.2,42,30.17,10.0,SW,4.6,-,N/A,,Clear,230,2012-10-14 03:53:00
9:53 PM,62.6,42.8,48,30.19,10.0,WNW,3.5,-,N/A,,Clear,300,2012-10-14 04:53:00
10:53 PM,55.9,37.9,51,30.15,10.0,SSW,6.9,-,N/A,,Clear,200,2012-10-14 05:53:00
11:53 PM,55.9,39.9,55,30.14,10.0,South,5.8,-,N/A,,Clear,190,2012-10-14 06:53:00